MICROMAS-2A (43131 NORAD) Tracking and Keplerian Element Data

This shows tracking and keplerian element data for the satellite.

Feedback or suggestion? Click here.




ElementValue
Catalog43131
NameMICROMAS-2A
Epoch Orbit4643
Epoch Day317.43714184
Epoch Year2018
RAAN20.4782
Inclination97.5171
Eccentricity0.0008172
Argument of Perigee300.2192
Mean Anonmoly59.8235
Mean Motion15.23331447
Decay Rate1.911E-05
L11 43131U 18004W 18317.43714184 .00001911 00000-0 83485-4 0 9991
L22 43131 97.5171 20.4782 0008172 300.2192 59.8235 15.23331447 46434

Live tracking and technical data element details for MICROMAS-2A (NORAD 43131). MICROMAS-2A can be tracked NOW for your location showing map with azimuth and elevation plus other details from your city location.

Track the satellite on the map from your city or location and see movement details for azimuth, elevation, latitude, longitude, range, height, and movement on the map or in text.







IsCatalogInMostPopularTable: catalog: 43131, numindb: 177
Update: records affected: 1



GetName: 43131 MICROMAS-2A

Hit Count: updated at: Wed, 14 Nov 2018 15:16:03 GMT